Weather History for Yuma MCAS, AZ

Change the Weather History Date:

Saturday, October 9, 2010

  Actual Average Record
Temperature  
Mean Temperature 78 °F 80 °F  
Max Temperature 95 °F 93 °F 106 °F (1996)
Min Temperature 60 °F 68 °F 48 °F (1923)
Degree Days  
Heating Degree Days 0 0  
Month to date heating degree days 0 0  
Since 1 July heating degree days 0 0  
Cooling Degree Days 13 15  
Month to date cooling degree days 123 150  
Year to date cooling degree days 4053 4324  
Growing Degree Days 28 (Base 50)    
Moisture  
Dew Point 37 °F    
Average Humidity 30    
Maximum Humidity 51    
Minimum Humidity 9    
Precipitation  
Precipitation 0.00 in 0.01 in 1.77 in (1932)
Month to date precipitation 0.05 0.09  
Year to date precipitation 4.42 2.71  
Sea Level Pressure  
Sea Level Pressure 30.00 in    
Wind  
Wind Speed 4 mph (NNW)    
Max Wind Speed 14 mph    
Max Gust Speed 17 mph    
Visibility 10 miles    
Events      
T = Trace of Precipitation, MM = Missing Value Source: NWS Daily Summary

Daily Weather History Graph

Daily Weather History Graph

Search for Another Location

Airport:

Trip Planner

Search our weather history database for the weather conditions in past years. The results will help you decide how hot, cold, wet, or windy it might be!

Date:

Astronomy

Oct. 09, 2010 Rise Set
Actual Time 6:38 AM MST 6:12 PM MST
Civil Twilight 6:13 AM MST 6:37 PM MST
Nautical Twilight 5:44 AM MST 7:05 PM MST
Astronomical Twilight 5:16 AM MST 7:34 PM MST
Moon 8:50 AM MST (10/9) 7:25 PM MST (10/9)
Length of Visible Light 12h 23m
Length of Day
11h 34m
Waxing Crescent, 6% of the Moon is Illuminated
Oct 9
Waxing Crescent
Oct 14
First Quarter
Oct 22
Full
Oct 30
Last Quarter
Nov 5
New

Hourly Weather History & Observations

Time (MST) Temp. Dew Point Humidity Pressure Visibility Wind Dir Wind Speed Gust Speed Precip Events Conditions
12:55 AM 68.0 °F 43.0 °F 40% 30.02 in 10.0 mi Calm Calm - N/A   Clear
1:55 AM 64.9 °F 41.0 °F 42% 30.03 in 10.0 mi Calm Calm - N/A   Clear
2:55 AM 66.0 °F 42.1 °F 42% 30.02 in 10.0 mi Calm Calm - N/A   Clear
3:55 AM 64.0 °F 43.0 °F 46% 30.02 in 10.0 mi Calm Calm - N/A   Clear
4:55 AM 64.9 °F 39.9 °F 40% 30.03 in 10.0 mi Calm Calm - N/A   Clear
5:55 AM 60.1 °F 43.0 °F 53% 30.03 in 10.0 mi Calm Calm - N/A   Clear
6:55 AM 61.0 °F 42.1 °F 50% 30.04 in 10.0 mi Calm Calm - N/A   Clear
7:55 AM 64.9 °F 44.1 °F 47% 30.06 in 10.0 mi Calm Calm - N/A   Clear
8:55 AM 75.0 °F 35.1 °F 23% 30.08 in 10.0 mi NNE 3.5 mph - N/A   Clear
9:55 AM 81.0 °F 37.0 °F 21% 30.07 in 10.0 mi North 5.8 mph - N/A   Clear
10:55 AM 86.0 °F 37.9 °F 18% 30.07 in 10.0 mi Variable 3.5 mph - N/A   Clear
11:55 AM 90.0 °F 35.1 °F 14% 30.05 in 10.0 mi North 8.1 mph - N/A   Clear
12:55 PM 91.0 °F 34.0 °F 13% 30.02 in 10.0 mi North 6.9 mph - N/A   Clear
1:55 PM 93.9 °F 32.0 °F 11% 29.99 in 10.0 mi NNW 8.1 mph - N/A   Clear
2:55 PM 93.9 °F 28.0 °F 10% 29.96 in 10.0 mi Variable 6.9 mph - N/A   Clear
3:55 PM 95.0 °F 27.0 °F 9% 29.96 in 10.0 mi North 10.4 mph - N/A   Clear
4:55 PM 93.0 °F 27.0 °F 9% 29.94 in 10.0 mi NNW 9.2 mph - N/A   Clear
5:55 PM 91.0 °F 27.0 °F 10% 29.94 in 10.0 mi North 8.1 mph - N/A   Clear
6:55 PM 84.9 °F 30.9 °F 14% 29.94 in 10.0 mi NNW 5.8 mph - N/A   Clear
7:55 PM 82.0 °F 36.0 °F 19% 29.96 in 10.0 mi West 5.8 mph - N/A   Clear
8:55 PM 79.0 °F 37.9 °F 23% 29.96 in 10.0 mi West 5.8 mph - N/A   Clear
9:55 PM 75.9 °F 39.9 °F 27% 29.96 in 10.0 mi West 5.8 mph - N/A   Clear
10:55 PM 73.0 °F 41.0 °F 31% 29.96 in 10.0 mi Calm Calm - N/A   Clear
11:55 PM 70.0 °F 42.1 °F 36% 29.96 in 10.0 mi SSE 5.8 mph - N/A   Clear